[keps] orb06362.amsat
Ray Hoad
r.hoad at att.net
Thu Dec 28 18:03:33 PST 2006
SB KEPS @ AMSAT $ORB06362.O
Orbital Elements 06362.OSCAR
HR AMSAT ORBITAL ELEMENTS FOR OSCAR SATELLITES
FROM WA5QGD FORT WORTH,TX December 28, 2006
Send SUBSCRIBE KEPS/UNSUBSCRIBE KEPS to majordomo at amsat.org only
BID: ORB06362.O
TO ALL RADIO AMATEURS BT
Satellite: AO-07
Catalog number: 07530
Epoch time: 06361.15857171
Element set: 0765
Inclination: 101.5413 deg
RA of node: 039.0666 deg
Eccentricity: 0.0012018
Arg of perigee: 230.4020 deg
Mean anomaly: 129.5993 deg
Mean motion: 12.53572278 rev/day
Decay rate: -2.8e-07 rev/day^2
Epoch rev: 46956
Checksum: 291
Satellite: UO-11
Catalog number: 14781
Epoch time: 06361.41111894
Element set: 0260
Inclination: 098.2011 deg
RA of node: 015.6877 deg
Eccentricity: 0.0009447
Arg of perigee: 010.4518 deg
Mean anomaly: 349.6934 deg
Mean motion: 14.79504227 rev/day
Decay rate: 3.8e-07 rev/day^2
Epoch rev: 22433
Checksum: 289
Satellite: RS-10/11
Catalog number: 18129
Epoch time: 06362.86315697
Element set: 181
Inclination: 082.9236 deg
RA of node: 184.1564 deg
Eccentricity: 0.0010407
Arg of perigee: 275.9318 deg
Mean anomaly: 084.0647 deg
Mean motion: 13.72782706 rev/day
Decay rate: 2.6e-07 rev/day^2
Epoch rev: 97786
Checksum: 330
Satellite: RS-15
Catalog number: 23439
Epoch time: 06361.89624004
Element set: 999
Inclination: 064.8202 deg
RA of node: 283.9361 deg
Eccentricity: 0.0164232
Arg of perigee: 220.8954 deg
Mean anomaly: 137.9549 deg
Mean motion: 11.27551689 rev/day
Decay rate: -3.9e-07 rev/day^2
Epoch rev: 49438
Checksum: 340
Satellite: FO-29
Catalog number: 24278
Epoch time: 06361.92860793
Element set: 0399
Inclination: 098.5257 deg
RA of node: 339.7791 deg
Eccentricity: 0.0350634
Arg of perigee: 167.0901 deg
Mean anomaly: 193.9507 deg
Mean motion: 13.52926497 rev/day
Decay rate: -1.8e-07 rev/day^2
Epoch rev: 51174
Checksum: 356
Satellite: SO-33
Catalog number: 25509
Epoch time: 06361.72656138
Element set: 0828
Inclination: 031.4314 deg
RA of node: 115.1253 deg
Eccentricity: 0.0354607
Arg of perigee: 008.3857 deg
Mean anomaly: 352.2450 deg
Mean motion: 14.28143781 rev/day
Decay rate: 8.9e-07 rev/day^2
Epoch rev: 42672
Checksum: 298
Satellite: VO-52
Catalog number: 28650
Epoch time: 06361.66663169
Element set: 0516
Inclination: 097.8526 deg
RA of node: 071.0639 deg
Eccentricity: 0.0028445
Arg of perigee: 092.1794 deg
Mean anomaly: 268.2636 deg
Mean motion: 14.81240813 rev/day
Decay rate: 1.00e-06 rev/day^2
Epoch rev: 08902
Checksum: 312
/EX
SB KEPS @ AMSAT $ORB06362.D
Orbital Elements 06362.MICROS
HR AMSAT ORBITAL ELEMENTS FOR THE MICROSATS
FROM WA5QGD FORT WORTH,TX December 28, 2006
Send SUBSCRIBE KEPS/UNSUBSCRIBE KEPS to majordomo at amsat.org only
BID: ORB06362.D
TO ALL RADIO AMATEURS BT
Satellite: AO-16
Catalog number: 20439
Epoch time: 06362.50181195
Element set: 929
Inclination: 098.1887 deg
RA of node: 001.5362 deg
Eccentricity: 0.0010876
Arg of perigee: 341.1567 deg
Mean anomaly: 018.9209 deg
Mean motion: 14.31744930 rev/day
Decay rate: -4.1e-07 rev/day^2
Epoch rev: 88412
Checksum: 304
Satellite: LO-19
Catalog number: 20442
Epoch time: 06361.59072236
Element set: 859
Inclination: 098.1819 deg
RA of node: 010.1832 deg
Eccentricity: 0.0011775
Arg of perigee: 342.4611 deg
Mean anomaly: 017.6171 deg
Mean motion: 14.31986439 rev/day
Decay rate: -9.8e-07 rev/day^2
Epoch rev: 88413
Checksum: 311
Satellite: AO-27
Catalog number: 22825
Epoch time: 06362.44541547
Element set: 579
Inclination: 098.3088 deg
RA of node: 334.9861 deg
Eccentricity: 0.0009340
Arg of perigee: 049.4128 deg
Mean anomaly: 310.7884 deg
Mean motion: 14.29195004 rev/day
Decay rate: 5.5e-07 rev/day^2
Epoch rev: 69110
Checksum: 318
Satellite: IO-26
Catalog number: 22826
Epoch time: 06361.61208461
Element set: 272
Inclination: 098.3022 deg
RA of node: 335.3323 deg
Eccentricity: 0.0009888
Arg of perigee: 049.8421 deg
Mean anomaly: 310.3623 deg
Mean motion: 14.29439768 rev/day
Decay rate: -2.0e-08 rev/day^2
Epoch rev: 69106
Checksum: 298
Satellite: PO-28
Catalog number: 22829
Epoch time: 06361.51191386
Element set: 555
Inclination: 098.2912 deg
RA of node: 336.4252 deg
Eccentricity: 0.0010304
Arg of perigee: 026.2810 deg
Mean anomaly: 333.8896 deg
Mean motion: 14.30137749 rev/day
Decay rate: 5.0e-07 rev/day^2
Epoch rev: 69127
Checksum: 301
Satellite: GO-32
Catalog number: 25397
Epoch time: 06362.66303203
Element set: 192
Inclination: 098.4412 deg
RA of node: 052.1174 deg
Eccentricity: 0.0001581
Arg of perigee: 039.6713 deg
Mean anomaly: 320.4575 deg
Mean motion: 14.23117815 rev/day
Decay rate: -1.3e-07 rev/day^2
Epoch rev: 43990
Checksum: 275
Satellite: MO-46
Catalog number: 26548
Epoch time: 06361.50895517
Element set: 682
Inclination: 064.5581 deg
RA of node: 353.7567 deg
Eccentricity: 0.0034528
Arg of perigee: 220.2272 deg
Mean anomaly: 139.6285 deg
Mean motion: 14.83076415 rev/day
Decay rate: 3.4e-07 rev/day^2
Epoch rev: 33807
Checksum: 323
Satellite: NO-44
Catalog number: 26931
Epoch time: 06361.67044731
Element set: 0484
Inclination: 067.0516 deg
RA of node: 229.3021 deg
Eccentricity: 0.0004897
Arg of perigee: 273.6872 deg
Mean anomaly: 086.3675 deg
Mean motion: 14.29465785 rev/day
Decay rate: -2.26e-06 rev/day^2
Epoch rev: 27358
Checksum: 332
Satellite: SO-50
Catalog number: 27607
Epoch time: 06362.17005528
Element set: 204
Inclination: 064.5577 deg
RA of node: 244.2344 deg
Eccentricity: 0.0036517
Arg of perigee: 061.3772 deg
Mean anomaly: 299.1000 deg
Mean motion: 14.71213189 rev/day
Decay rate: -2.8e-07 rev/day^2
Epoch rev: 21596
Checksum: 286
Satellite: CO-55
Catalog number: 27844
Epoch time: 06361.30732793
Element set: 0925
Inclination: 098.7210 deg
RA of node: 006.9527 deg
Eccentricity: 0.0009312
Arg of perigee: 223.8107 deg
Mean anomaly: 136.2326 deg
Mean motion: 14.20481581 rev/day
Decay rate: 6.3e-07 rev/day^2
Epoch rev: 18107
Checksum: 289
Satellite: CO-57
Catalog number: 27848
Epoch time: 06362.43337801
Element set: 889
Inclination: 098.7177 deg
RA of node: 007.3227 deg
Eccentricity: 0.0009191
Arg of perigee: 225.1389 deg
Mean anomaly: 134.9043 deg
Mean motion: 14.20304959 rev/day
Decay rate: 2.7e-07 rev/day^2
Epoch rev: 18121
Checksum: 316
Satellite: AO-51
Catalog number: 28375
Epoch time: 06361.52064394
Element set: 0709
Inclination: 098.1378 deg
RA of node: 044.4667 deg
Eccentricity: 0.0084698
Arg of perigee: 343.1717 deg
Mean anomaly: 016.6663 deg
Mean motion: 14.40549552 rev/day
Decay rate: 4.9e-07 rev/day^2
Epoch rev: 13100
Checksum: 320
Satellite: CO-56
Catalog number: 28941
Epoch time: 06362.80960976
Element set: 307
Inclination: 098.1559 deg
RA of node: 040.6628 deg
Eccentricity: 0.0252773
Arg of perigee: 152.9793 deg
Mean anomaly: 208.4704 deg
Mean motion: 15.32691673 rev/day
Decay rate: 1.8821e-04 rev/day^2
Epoch rev: 4727
Checksum: 348
Satellite: HO-59
Catalog number: 29484
Epoch time: 06362.79360039
Element set: 130
Inclination: 098.3112 deg
RA of node: 023.2806 deg
Eccentricity: 0.0255547
Arg of perigee: 150.8574 deg
Mean anomaly: 210.7069 deg
Mean motion: 15.38114464 rev/day
Decay rate: 2.9582e-04 rev/day^2
Epoch rev: 1477
Checksum: 317
Satellite: RAFT
Catalog number: 29661
Epoch time: 06362.85300733
Element set: 13
Inclination: 051.6441 deg
RA of node: 263.5083 deg
Eccentricity: 0.0014383
Arg of perigee: 054.3697 deg
Mean anomaly: 305.8639 deg
Mean motion: 15.83182844 rev/day
Decay rate: 3.6779e-04 rev/day^2
Epoch rev: 124
Checksum: 299
Satellite: ANDE
Catalog number: 29667
Epoch time: 06362.85676645
Element set: 7
Inclination: 051.6346 deg
RA of node: 263.5339 deg
Eccentricity: 0.0017959
Arg of perigee: 045.7747 deg
Mean anomaly: 314.4726 deg
Mean motion: 15.82245702 rev/day
Decay rate: 1.2485e-04 rev/day^2
Epoch rev: 98
Checksum: 329
/EX
SB KEPS @ AMSAT $ORB06362.W
Orbital Elements 06362.WEATHER
HR AMSAT ORBITAL ELEMENTS FOR WEATHER SATELLITES
FROM WA5QGD FORT WORTH,TX December 28, 2006
Send SUBSCRIBE KEPS/UNSUBSCRIBE KEPS to majordomo at amsat.org only
BID: ORB06362.W
TO ALL RADIO AMATEURS BT
Satellite: NOAA-10
Catalog number: 16969
Epoch time: 06362.11624812
Element set: 476
Inclination: 098.7546 deg
RA of node: 014.1177 deg
Eccentricity: 0.0011971
Arg of perigee: 309.1330 deg
Mean anomaly: 050.8774 deg
Mean motion: 14.27313349 rev/day
Decay rate: -3.3e-07 rev/day^2
Epoch rev: 5482
Checksum: 294
Satellite: NOAA-11
Catalog number: 19531
Epoch time: 06362.27457274
Element set: 448
Inclination: 098.8194 deg
RA of node: 088.5353 deg
Eccentricity: 0.0011963
Arg of perigee: 154.0446 deg
Mean anomaly: 206.1301 deg
Mean motion: 14.14831851 rev/day
Decay rate: -9.4e-07 rev/day^2
Epoch rev: 94198
Checksum: 312
Satellite: NOAA-12
Catalog number: 21263
Epoch time: 06362.46232485
Element set: 946
Inclination: 098.7437 deg
RA of node: 355.0659 deg
Eccentricity: 0.0012174
Arg of perigee: 241.6670 deg
Mean anomaly: 118.3309 deg
Mean motion: 14.25518903 rev/day
Decay rate: -7.9e-07 rev/day^2
Epoch rev: 81192
Checksum: 311
Satellite: MET-3/5
Catalog number: 21655
Epoch time: 06361.93685191
Element set: 0206
Inclination: 082.5540 deg
RA of node: 123.9373 deg
Eccentricity: 0.0012425
Arg of perigee: 278.9796 deg
Mean anomaly: 080.9920 deg
Mean motion: 13.17009049 rev/day
Decay rate: 5.1e-07 rev/day^2
Epoch rev: 73886
Checksum: 318
Satellite: MET-2/21
Catalog number: 22782
Epoch time: 06362.56073171
Element set: 707
Inclination: 082.5471 deg
RA of node: 177.2642 deg
Eccentricity: 0.0022591
Arg of perigee: 358.7859 deg
Mean anomaly: 001.3233 deg
Mean motion: 13.83613836 rev/day
Decay rate: -2.9e-07 rev/day^2
Epoch rev: 67292
Checksum: 310
Satellite: OKEAN-4
Catalog number: 23317
Epoch time: 06361.47006562
Element set: 0143
Inclination: 082.5401 deg
RA of node: 096.7361 deg
Eccentricity: 0.0023891
Arg of perigee: 097.8131 deg
Mean anomaly: 262.5758 deg
Mean motion: 14.82449260 rev/day
Decay rate: 2.93e-06 rev/day^2
Epoch rev: 65861
Checksum: 303
